Wind_Speed
84 82 86 88 88 86 87 88 87 88 94 96 97 87 81 85 84 86 88 86 83 80 80 83 76 74 71 61 59 61 56 55 55 50 49 47 43 37 34 33 36 41 43 43
85 86 92 94 94 95 100 100 98 95 99 104 100 93 93 89 87 86 89 84 81 77 78 78 82 77 74 67 66 64 63 61 58 58 49 51 48 40 35 34 31 31 38 43
92 92 93 97 101 105 102 104 104 103 107 108 110 97 91 90 89 88 82 77 76 74 71 75 76 79 77 70 68 65 65 62 57 59 55 48 49 45 39 35 33 29 34 38
101 103 104 109 107 109 105 114 112 114 117 111 109 94 87 90 89 81 77 72 72 70 71 72 77 77 78 74 74 70 68 64 59 60 55 49 49 48 43 39 36 35 35 37
109 112 114 111 112 114 113 115 117 120 118 107 97 96 74 77 78 73 71 65 64 61 64 66 71 75 75 77 77 73 64 61 61 60 56 51 49 50 46 43 39 37 37 38
107 113 113 114 118 120 116 116 121 120 113 97 95 91 60 69 66 67 66 62 61 57 60 63 69 72 73 74 75 72 66 63 58 57 53 51 48 50 48 46 41 40 38 39
110 114 122 122 119 120 122 124 123 118 108 95 85 78 59 63 62 59 61 63 63 57 60 58 67 72 76 77 76 69 69 63 58 58 52 49 48 50 48 46 44 41 39 40
113 118 121 125 126 122 123 121 118 109 98 89 82 69 66 63 61 60 57 60 65 58 57 55 61 62 70 72 70 68 66 61 56 57 54 47 49 50 45 43 43 41 40 41
113 114 118 125 122 124 118 111 107 99 87 83 75 71 69 63 58 56 57 56 62 62 55 52 55 59 66 69 69 68 64 62 56 56 54 46 49 51 45 42 42 41 41 41
119 118 119 120 123 117 108 100 95 93 84 78 66 66 65 61 56 51 56 56 61 57 54 52 54 58 67 68 68 68 65 64 59 56 53 45 49 48 44 40 41 40 40 39
117 116 112 114 112 107 97 92 90 86 86 76 61 54 54 57 54 48 51 51 57 57 54 55 53 55 65 69 71 67 62 67 60 56 51 46 48 44 42 38 39 38 35 37
114 108 103 101 104 96 89 86 85 82 76 67 60 47 43 53 54 52 51 52 57 58 57 57 51 55 63 72 73 66 66 69 60 54 47 47 44 41 40 37 37 34 31 34
106 101 98 95 92 89 84 80 73 72 68 62 59 38 45 47 49 51 53 50 56 55 58 53 48 55 59 74 72 68 69 68 60 53 46 46 41 40 38 36 33 31 29 31
98 96 95 89 83 82 80 75 69 59 56 52 46 41 43 43 47 51 52 53 51 55 56 55 47 48 55 71 72 73 67 63 56 51 47 45 42 39 37 35 31 27 26 27
98 95 91 86 78 76 74 64 61 49 48 44 48 37 43 39 46 50 51 56 47 55 52 43 42 47 52 59 74 67 61 57 53 50 49 44 41 38 36 33 29 25 24 25
94 91 84 80 75 71 65 57 49 47 40 41 41 37 44 40 39 48 53 46 48 53 48 43 47 47 50 52 58 60 60 56 53 52 49 45 40 38 35 32 26 22 20 22
89 84 76 74 72 65 55 48 43 41 40 37 36 39 37 40 43 44 43 42 48 51 47 45 47 43 45 51 53 57 58 56 54 52 47 44 40 38 36 32 24 22 19 20
81 68 65 70 63 56 43 42 41 43 38 33 37 35 35 39 43 41 42 47 54 59 53 49 41 39 43 51 54 56 56 56 54 51 47 43 41 39 36 31 25 21 19 19
64 59 59 62 55 51 37 38 39 42 35 32 36 32 32 35 40 42 44 47 53 58 56 56 54 50 47 50 56 55 57 57 52 50 47 45 41 40 37 32 27 22 19 18
55 49 53 52 49 48 34 32 37 39 32 31 30 30 33 34 40 43 44 48 54 55 58 57 59 50 50 53 56 58 57 54 54 50 48 45 42 41 37 33 28 23 20 18
46 45 47 45 44 46 33 31 35 35 30 31 31 33 34 37 40 45 48 51 54 58 58 60 61 56 57 58 59 59 57 53 55 49 48 44 43 41 37 33 30 24 20 17
40 38 43 42 44 40 34 32 33 32 30 32 31 33 35 39 44 47 50 55 62 61 63 64 64 63 60 62 63 62 54 57 53 52 47 44 42 40 37 33 30 25 21 17
35 32 43 44 43 37 34 32 34 29 31 33 32 33 34 39 46 53 57 62 65 66 66 66 65 66 67 67 65 61 59 61 57 54 45 43 43 41 37 33 29 26 22 18
32 31 41 43 36 36 32 31 33 29 32 36 34 34 36 42 49 55 59 63 68 71 71 71 74 74 76 73 69 65 67 64 59 53 43 44 43 41 37 33 30 26 22 19
29 33 36 36 33 32 29 29 30 31 33 37 39 42 43 46 50 56 62 67 73 73 75 76 81 82 78 75 71 68 72 68 61 54 44 44 43 41 37 33 30 26 22 19
27 30 32 32 32 28 29 28 31 32 34 40 43 46 48 50 54 62 68 72 75 70 77 79 82 84 81 76 74 71 74 72 62 57 49 43 44 42 37 33 30 26 21 19
Wind_Direction
297 296 295 294 295 297 299 298 300 298 298 300 301 303 294 285 281 278 278 276 272 270 262 259 255 256 258 257 258 265 265 270 270 262 256 258 261 264 270 274 258 258 263 267
298 296 295 296 296 296 296 295 297 297 297 298 298 301 297 288 282 278 280 278 272 268 263 259 252 252 255 257 257 259 263 268 269 265 255 255 258 259 264 268 264 262 266 270
297 294 294 294 294 293 294 294 293 294 295 299 298 302 293 288 284 281 278 275 272 268 260 257 250 249 249 251 255 255 259 262 265 263 261 254 255 256 259 264 266 269 271 272
294 292 294 294 293 291 293 292 291 294 297 299 300 297 291 285 284 281 276 273 268 264 258 251 248 247 243 244 249 252 257 260 258 259 261 255 252 252 257 260 264 267 273 283
291 292 292 294 293 292 289 289 291 294 298 298 297 292 290 285 281 279 275 270 266 261 255 248 242 242 240 241 243 247 248 248 253 254 258 256 248 249 252 257 261 266 273 280
287 288 291 291 291 291 291 293 294 295 296 297 293 293 292 280 277 279 276 271 266 260 255 248 243 240 239 238 241 243 241 238 246 251 253 253 246 246 251 255 259 264 271 278
287 286 289 290 292 291 291 294 296 297 297 296 291 292 288 280 274 268 268 267 265 260 255 246 242 238 237 236 241 237 235 236 237 245 245 249 243 243 248 253 257 262 270 276
285 287 288 289 292 292 293 296 296 295 296 294 293 292 285 279 274 269 263 260 262 254 249 243 238 238 237 234 230 224 229 229 233 238 238 243 238 240 247 252 257 262 269 276
291 290 290 291 291 293 295 297 295 294 293 290 290 290 281 278 271 266 260 252 252 254 248 234 233 232 233 230 224 224 222 226 227 236 238 239 234 235 243 250 256 262 268 276
291 292 292 292 292 294 296 297 295 293 291 287 286 282 279 272 267 261 254 248 247 246 245 240 227 224 225 226 221 215 218 224 226 232 235 237 229 232 238 247 255 260 267 276
289 291 291 291 293 295 297 296 292 289 290 289 284 273 268 266 264 255 246 242 240 243 240 237 227 224 218 218 220 212 215 222 225 231 234 232 224 230 236 244 252 259 266 275
292 291 291 291 292 294 295 292 291 290 288 286 280 278 260 252 252 247 240 233 229 236 234 233 223 219 217 211 218 215 222 221 227 230 228 222 220 226 233 239 247 257 265 274
292 291 291 291 294 296 292 289 288 285 283 281 281 272 260 250 243 242 240 232 227 227 226 228 220 219 213 213 208 221 222 220 230 225 221 215 213 221 227 235 242 253 265 273
292 293 292 294 296 294 294 294 285 286 282 275 278 266 253 245 241 236 238 228 227 221 223 222 219 214 210 213 209 220 222 222 220 217 211 208 209 217 223 229 237 247 259 271
293 293 294 298 297 292 292 289 290 283 271 272 264 254 253 238 237 234 228 226 220 219 220 212 207 219 215 214 214 217 216 217 210 206 203 201 205 213 218 224 229 241 256 266
292 293 298 297 294 292 291 291 283 278 271 267 258 250 248 242 229 230 225 222 215 215 209 198 185 215 216 214 214 213 216 205 201 197 196 198 204 208 215 219 222 233 247 262
292 296 297 293 291 292 291 289 281 272 267 254 250 248 241 236 223 224 225 215 209 207 196 196 201 214 207 207 204 201 201 196 193 192 190 192 201 207 211 212 211 228 243 257
294 297 293 288 291 291 293 283 276 269 264 249 247 239 229 230 228 218 216 206 202 199 186 184 168 202 209 202 197 196 193 190 187 186 187 192 199 205 207 207 209 222 240 250
294 293 287 285 292 291 290 276 271 264 255 245 242 234 227 221 220 211 209 208 206 203 191 190 177 188 195 195 189 189 188 184 183 184 188 192 197 203 205 206 210 218 235 241
292 287 282 287 287 288 281 271 266 263 258 249 243 230 218 213 211 206 203 202 203 202 188 184 181 178 194 189 186 186 182 178 183 183 190 192 196 201 204 206 210 216 231 237
293 285 283 287 284 282 279 268 258 258 253 241 231 222 212 203 204 199 199 200 200 192 187 182 183 186 182 184 185 182 177 185 180 185 187 190 196 199 204 205 208 216 227 236
285 280 280 282 273 273 269 263 257 251 244 237 227 217 210 201 198 193 193 195 197 189 186 182 182 178 179 181 182 179 177 187 178 183 181 192 196 199 203 204 209 215 225 234
281 278 270 269 267 267 261 256 251 242 237 231 222 211 207 200 197 188 191 194 194 189 186 181 178 171 177 179 178 176 181 183 179 178 184 195 195 199 200 205 208 212 221 231
282 267 262 264 266 263 259 253 246 233 225 222 208 208 203 201 195 191 191 190 192 191 185 181 175 176 176 179 177 177 181 181 176 178 188 193 194 198 200 204 207 213 219 230
275 261 263 262 260 258 255 245 234 223 217 216 205 201 197 197 193 187 190 189 191 191 186 182 177 178 176 178 179 180 181 178 177 182 184 192 195 196 199 203 207 213 220 230
269 259 259 259 255 249 243 234 224 216 212 213 206 201 192 194 191 184 188 188 191 191 185 183 179 177 178 181 182 183 182 178 179 183 178 192 194 195 199 203 206 212 218 230
Height
10759 10755 10746 10738 10735 10731 10728 10723 10720 10713 10704 10702 10701 10713 10706 10700 10695 10689 10681 10683 10687 10687 10688 10692 10701 10704 10707 10714 10719 10717 10717 10718 10720 10723 10726 10730 10731 10732 10733 10734 10733 10733 10732 10734
10742 10738 10724 10719 10711 10708 10702 10696 10694 10694 10682 10671 10675 10691 10675 10665 10660 10658 10653 10653 10655 10662 10661 10666 10674 10683 10689 10694 10701 10703 10703 10705 10707 10710 10715 10718 10722 10724 10724 10726 10726 10726 10725 10725
10719 10710 10704 10699 10691 10683 10679 10669 10665 10664 10652 10650 10640 10662 10643 10630 10625 10626 10629 10628 10627 10630 10638 10639 10649 10661 10669 10676 10679 10684 10689 10692 10695 10697 10702 10708 10712 10716 10716 10717 10718 10719 10717 10716
10699 10685 10680 10672 10665 10652 10659 10635 10635 10631 10623 10630 10615 10623 10614 10600 10593 10597 10598 10601 10601 10603 10605 10614 10622 10635 10646 10654 10658 10667 10673 10677 10682 10685 10690 10697 10701 10705 10708 10709 10711 10711 10711 10708
10669 10659 10655 10653 10634 10624 10626 10612 10604 10597 10595 10599 10592 10573 10595 10577 10567 10568 10564 10571 10573 10578 10580 10588 10596 10607 10622 10632 10638 10646 10656 10662 10668 10673 10680 10686 10691 10696 10698 10701 10702 10703 10704 10703
10647 10631 10626 10621 10604 10593 10587 10581 10570 10565 10564 10576 10555 10549 10573 10550 10550 10544 10544 10549 10552 10557 10560 10569 10576 10586 10598 10611 10618 10626 10636 10647 10655 10663 10669 10673 10680 10685 10688 10692 10694 10696 10697 10696
10614 10607 10597 10589 10581 10566 10555 10547 10537 10531 10530 10540 10538 10532 10544 10528 10527 10530 10526 10524 10528 10537 10540 10549 10553 10565 10578 10591 10599 10607 10617 10631 10643 10650 10657 10661 10669 10674 10679 10683 10686 10687 10689 10687
10594 10576 10568 10553 10543 10534 10523 10517 10506 10502 10504 10507 10506 10514 10510 10508 10506 10508 10509 10508 10506 10513 10520 10532 10540 10549 10560 10571 10582 10591 10602 10615 10628 10635 10644 10651 10658 10663 10669 10674 10678 10680 10680 10678
10561 10552 10543 10523 10514 10500 10499 10491 10475 10474 10483 10478 10488 10485 10480 10483 10486 10488 10484 10488 10488 10492 10502 10513 10525 10532 10543 10556 10567 10578 10589 10601 10613 10622 10632 10640 10647 10654 10661 10666 10670 10672 10671 10671
10528 10519 10511 10496 10478 10471 10467 10465 10452 10441 10448 10453 10470 10460 10455 10455 10461 10468 10466 10469 10471 10479 10487 10497 10504 10514 10528 10540 10551 10565 10576 10587 10599 10609 10620 10629 10636 10645 10652 10658 10662 10664 10665 10664
10496 10490 10483 10468 10449 10442 10443 10435 10426 10424 10417 10422 10439 10442 10443 10437 10436 10443 10447 10455 10457 10462 10470 10477 10489 10502 10513 10528 10539 10552 10564 10576 10587 10597 10610 10618 10627 10636 10644 10651 10655 10657 10658 10658
10464 10460 10455 10442 10423 10423 10419 10412 10403 10398 10398 10400 10404 10417 10421 10412 10412 10418 10425 10433 10440 10446 10453 10461 10475 10489 10501 10513 10528 10541 10553 10566 10576 10588 10600 10609 10619 10628 10636 10643 10647 10650 10651 10652
10430 10426 10421 10416 10406 10398 10392 10387 10385 10376 10376 10379 10376 10397 10391 10391 10397 10400 10405 10414 10422 10431 10436 10449 10464 10477 10488 10501 10516 10529 10541 10556 10569 10579 10589 10601 10612 10621 10629 10635 10640 10643 10645 10645
10401 10395 10388 10388 10388 10373 10364 10356 10352 10361 10359 10358 10363 10370 10368 10372 10377 10383 10388 10397 10408 10416 10425 10437 10454 10466 10478 10489 10504 10516 10532 10547 10560 10570 10581 10593 10604 10614 10622 10628 10633 10637 10638 10639
10373 10369 10365 10360 10359 10347 10340 10339 10332 10341 10338 10340 10339 10353 10341 10355 10360 10365 10371 10380 10396 10407 10420 10436 10446 10458 10470 10480 10494 10509 10524 10537 10549 10562 10574 10586 10597 10607 10615 10621 10627 10630 10632 10633
10345 10343 10343 10333 10329 10325 10319 10320 10322 10318 10320 10325 10328 10331 10328 10335 10344 10350 10357 10371 10383 10398 10415 10427 10436 10439 10457 10472 10484 10500 10514 10528 10541 10554 10567 10580 10592 10600 10609 10615 10620 10623 10626 10627
10319 10322 10317 10308 10304 10303 10302 10303 10302 10299 10299 10311 10311 10311 10319 10323 10328 10335 10351 10363 10373 10389 10405 10417 10430 10439 10450 10464 10477 10491 10506 10520 10534 10548 10562 10574 10585 10594 10602 10608 10613 10617 10619 10621
10301 10303 10294 10282 10284 10281 10288 10285 10281 10279 10289 10293 10291 10298 10306 10312 10320 10329 10342 10353 10365 10375 10394 10412 10420 10439 10449 10457 10470 10485 10500 10515 10528 10543 10556 10568 10579 10588 10595 10601 10607 10610 10613 10615
10285 10282 10273 10265 10264 10262 10272 10267 10266 10266 10276 10279 10279 10289 10298 10305 10312 10322 10335 10346 10358 10371 10385 10400 10414 10425 10438 10453 10465 10480 10496 10511 10526 10539 10552 10562 10573 10582 10589 10595 10601 10605 10608 10610
10267 10264 10254 10253 10249 10245 10255 10255 10253 10254 10263 10267 10275 10283 10290 10298 10303 10310 10325 10339 10352 10366 10379 10394 10409 10419 10435 10451 10464 10478 10493 10507 10522 10535 10546 10557 10567 10576 10583 10589 10595 10599 10603 10605
10245 10241 10236 10236 10235 10232 10241 10243 10241 10245 10251 10256 10262 10273 10283 10290 10301 10311 10320 10333 10350 10362 10374 10387 10401 10416 10431 10447 10462 10477 10490 10504 10516 10529 10541 10552 10562 10570 10577 10584 10589 10594 10598 10600
10231 10228 10219 10222 10221 10224 10228 10229 10230 10235 10241 10245 10253 10264 10275 10283 10289 10303 10315 10329 10340 10355 10367 10381 10394 10410 10428 10443 10457 10472 10485 10501 10511 10524 10535 10548 10557 10565 10572 10578 10584 10588 10592 10595
10216 10213 10205 10207 10209 10213 10215 10217 10217 10226 10231 10234 10244 10254 10267 10278 10286 10294 10305 10321 10334 10347 10362 10375 10390 10405 10420 10437 10453 10468 10482 10496 10506 10518 10531 10542 10551 10559 10567 10573 10578 10583 10587 10590
10200 10199 10194 10193 10202 10200 10204 10207 10209 10218 10222 10225 10236 10247 10258 10270 10280 10290 10299 10314 10326 10341 10356 10370 10382 10396 10410 10428 10445 10460 10475 10489 10500 10512 10526 10537 10545 10554 10561 10568 10574 10578 10582 10586
10188 10185 10182 10184 10189 10189 10194 10197 10201 10208 10213 10219 10229 10236 10249 10261 10275 10287 10297 10307 10320 10336 10350 10364 10374 10392 10409 10425 10440 10454 10468 10480 10494 10507 10519 10531 10541 10549 10556 10563 10569 10573 10578 10582
10175 10173 10172 10174 10175 10180 10183 10185 10191 10198 10204 10210 10221 10228 10241 10253 10266 10279 10292 10303 10314 10332 10347 10361 10377 10389 10405 10420 10435 10450 10463 10473 10487 10501 10511 10526 10537 10545 10552 10558 10564 10569 10574 10578